Location: *
(46.4000°N, 12.6667°E)
Time: 18:23:47
(UTC+00:00)

ISS - Pass Details

Date: 09 March 2021
Orbit: 418 x 421 km, 51.6° (Epoch: 21 April)

Event Time Altitude Azimuth Distance (km) Brightness Sun altitude
Exits shadow 03:56:08 42° 307° (NW) 610 -3.3 -17.6°
Maximum altitude 03:57:08 77° 24° (NNE) 433 -3.7 -17.4°
Drops below altitude 10° 04:00:29 10° 112° (ESE) 1,495 -0.1 -16.8°
Sets 04:02:35 0° 114° (ESE) 2,356 1.0 -16.5°
